DECAYED

STARLINK-6256, 56401 (Decayed)

Orbit data source: Space-Track

STARLINK-6256, 56401 was a payload satellite owned by SpaceX/Seattle (US) in LEO that was launched on Thu, 04 May 2023 UTC via an FALCON 9 launch vehicle from the Air Force Eastern Test Range (AFETR). Payload-class satellites include a variety of spacecraft equipped with specific instruments for various scientific and technological missions. These include communications satellites like Starlink; space stations such as the ISS; scientific satellites like the Hubble; Earth observation satellites from companies like Planet Labs, Umbra, and HawkEye 360; GPS; miniature CubeSats for education and research; and military/defense satellites.

Not visible in the next 10 days
Identifier
56401, 2023-061AD
Orbit
Decayed
Country
Flag of USUS
Related business
Manufacturer
SpaceX/Seattle
Mission
Decayed Commercial Communications
Bus & Motor
STARLINK, Unknown motor
Mass
305 kg wet, ~290 kg dry
Launch date (UTC)
2023-05-04 (3 years ago)
Launch vehicle
FALCON 9
Launch site
Air Force Eastern Test Range (AFETR)
Object type
Payload
Rocket body
Debris
Shape & HBR
Box + 1 Pan, 10.1 m
Radar Cross Section
11.087 m², Large (>1 m²)

Expand to show TLE details & history
Last TLE update: 2 months ago

TLE from 2 months ago
0 STARLINK-6256
1 56401U 23061AD  26102.85752567  .09175625  93433-5  56169-3 0  9996
2 56401  42.9730 251.8116 0005065 286.1367  73.8968 16.41138878163273
Epoch: 2026-04-12T20:34Z
TLE epoch observation values (Epoch: 2026-04-12T20:34:50.217Z)
Latitude
-0.00005°
Longitude
102.04585°
Altitude
161.619 km
Speed
7.812 km/s
True Right ascension
16h 47m 14s
True Declination
0° 00' 00"
Sunlit
Object was in full shadow at epoch
Visualization orbit readout
Latitude
Unknown
Longitude
Unknown
Altitude
Unknown
Speed
Unknown
Apparent Right ascension
Unknown
Apparent Declination
Unknown
Sunlit
N/A
Visualization observer readout
Local Sidereal Time
21:42:19
Azimuth
Unknown
Elevation
Unknown
Doppler factor
Unknown
Orbital elements
Apogee altitude
168.134 km
Perigee altitude
161.505 km
Semi-major axis
6,542.956 km
Eccentricity
0.00051
Inclination
42.973°
RAAN
251.8116°
Arg. of periapsis
286.1367°
True anomaly
73.95257°
Mean anomaly
73.8968°
Eccentric anomaly
73.92469°
Mean motion
4.10093 °/min
Orbital period
87.79 mins
BSTAR
0.00056169
Loading maneuver chart data...
Computing Atmospheric mass density...
Loading historical data...
Loading historical data...
Loading historical data...
Loading historical data...
Loading historical data...
Loading historical data...
Loading historical data...

Documentation

Showing up to 5 results
|